Weather History for Mattoon, IL

Change the Weather History Date:

Monday, November 25, 2013

  Actual Average Record
Temperature  
Mean Temperature 28 °F 39 °F  
Max Temperature 33 °F 47 °F 66 °F (1990)
Min Temperature 23 °F 31 °F -1 °F (1950)
Degree Days  
Heating Degree Days 37 26  
Month to date heating degree days 589 517  
Since 1 July heating degree days 939 921  
Cooling Degree Days 0 0  
Month to date cooling degree days 0 0  
Year to date cooling degree days 1007 1057  
Moisture  
Dew Point 18 °F    
Average Humidity 65    
Maximum Humidity 78    
Minimum Humidity 51    
Precipitation  
Precipitation T in 0.11 in 1.73 in (1958)
Month to date precipitation 0.07 2.93  
Year to date precipitation 40.76 34.73  
Sea Level Pressure  
Sea Level Pressure 30.29 in    
Wind  
Wind Speed 8 mph (SSW)    
Max Wind Speed 16 mph    
Max Gust Speed 23 mph    
Visibility 10 miles    
Events Snow    
T = Trace of Precipitation, MM = Missing Value Source: NWS Daily Summary

Daily Weather History Graph

Daily Weather History Graph

Search for Another Location

Airport:

Trip Planner

Search our weather history database for the weather conditions in past years. The results will help you decide how hot, cold, wet, or windy it might be!

Date:

Astronomy

Nov. 25, 2013 Rise Set
Actual Time 6:48 AM CST 4:31 PM CST
Civil Twilight 6:18 AM CST 5:01 PM CST
Nautical Twilight 5:45 AM CST 5:34 PM CST
Astronomical Twilight 5:13 AM CST 6:06 PM CST
Moon 11:54 PM CST (11/25) 12:06 PM CST (11/25)
Length of Visible Light 10h 42m
Length of Day
9h 43m
Waning Gibbous, 51% of the Moon is Illuminated
Nov 25
Waning Gibbous
Nov 25
Last Quarter
Dec 2
New
Dec 9
First Quarter
Dec 17
Full

Hourly Weather History & Observations

Time (CST) Temp. Windchill Dew Point Humidity Pressure Visibility Wind Dir Wind Speed Gust Speed Precip Events Conditions
12:53 AM 23.0 °F 14.7 °F 12.9 °F 65% 30.45 in 10.0 mi South 6.9 mph - N/A   Clear
1:53 AM 23.0 °F 13.9 °F 14.0 °F 68% 30.44 in 10.0 mi South 8.1 mph - N/A   Clear
2:53 AM 24.1 °F 16.0 °F 14.0 °F 65% 30.41 in 10.0 mi South 6.9 mph - N/A   Clear
3:53 AM 24.1 °F 17.0 °F 14.0 °F 65% 30.39 in 10.0 mi SSE 5.8 mph - N/A   Clear
4:53 AM 24.1 °F 15.2 °F 15.1 °F 69% 30.37 in 10.0 mi South 8.1 mph - N/A   Clear
5:53 AM 25.0 °F 16.3 °F 16.0 °F 69% 30.37 in 10.0 mi South 8.1 mph - N/A   Mostly Cloudy
6:53 AM 26.1 °F 16.8 °F 16.0 °F 66% 30.35 in 10.0 mi South 9.2 mph - N/A   Overcast
7:53 AM 27.0 °F 17.3 °F 17.1 °F 66% 30.34 in 10.0 mi South 10.4 mph - N/A   Overcast
8:53 AM 28.0 °F 17.5 °F 17.1 °F 63% 30.32 in 10.0 mi South 12.7 mph - N/A   Overcast
9:53 AM 28.9 °F 17.3 °F 17.1 °F 61% 30.31 in 10.0 mi South 16.1 mph 20.7 mph N/A   Overcast
10:53 AM 30.0 °F 19.5 °F 17.1 °F 59% 30.30 in 10.0 mi SSW 13.8 mph - N/A   Overcast
11:53 AM 30.9 °F 22.8 °F 18.0 °F 59% 30.26 in 10.0 mi SSW 9.2 mph - N/A   Overcast
12:53 PM 32.0 °F 23.6 °F 17.1 °F 54% 30.24 in 10.0 mi SW 10.4 mph - N/A   Overcast
1:53 PM 33.1 °F 24.9 °F 18.0 °F 54% 30.23 in 10.0 mi SSW 10.4 mph - N/A   Overcast
2:53 PM 33.1 °F 25.5 °F 18.0 °F 54% 30.24 in 10.0 mi SW 9.2 mph - N/A   Overcast
3:53 PM 33.1 °F 27.7 °F 19.0 °F 56% 30.23 in 10.0 mi SSW 5.8 mph - N/A   Overcast
4:53 PM 33.1 °F 24.9 °F 19.9 °F 59% 30.21 in 10.0 mi South 10.4 mph - N/A   Overcast
5:53 PM 33.1 °F 26.1 °F 19.9 °F 59% 30.22 in 10.0 mi SSW 8.1 mph - N/A   Overcast
6:53 PM 32.0 °F 27.5 °F 19.9 °F 61% 30.22 in 10.0 mi SW 4.6 mph - N/A   Overcast
7:53 PM 32.0 °F 26.4 °F 21.9 °F 66% 30.22 in 9.0 mi SSW 5.8 mph - 0.00 in Snow Light Snow
8:53 PM 30.9 °F 24.3 °F 23.0 °F 72% 30.20 in 10.0 mi SW 6.9 mph - 0.00 in   Overcast
9:53 PM 30.9 °F - 23.0 °F 72% 30.19 in 10.0 mi Calm Calm - N/A   Overcast
10:53 PM 30.9 °F 26.2 °F 24.1 °F 76% 30.21 in 10.0 mi SSW 4.6 mph - N/A   Overcast
11:53 PM 30.9 °F 24.3 °F 25.0 °F 79% 30.21 in 10.0 mi SSW 6.9 mph - N/A   Overcast